Location: Bougoura
(13.1861°N, 5.0773°W)
Time: 09:46:23
(UTC+00:00)

Okean O Rocket - Pass Details

Date: 26 January 2021
Orbit: 622 x 645 km, 98.2° (Epoch: 25 February)

Event Time Altitude Azimuth Distance (km) Brightness Sun altitude
Rises 06:16:03 0° 20° (NNE) 2,892 5.0 -8.1°
Reaches altitude 10° 06:18:17 10° 26° (NNE) 1,984 4.3 -7.6°
Maximum altitude 06:22:28 49° 101° (E) 801 2.7 -6.6°
Drops below altitude 10° 06:26:38 10° 176° (S) 1,984 4.5 -5.6°
Sets 06:28:52 0° 182° (S) 2,891 5.2 -5.1°
